176  
NZUS99 KDVN 201510  
HRRRRR  
HOURLY WEATHER ROUNDUP  
NATIONAL WEATHER SERVICE QUAD CITIES IA IL  
900 AM CST WED FEB 20 2019  
 
NOTE: "FAIR" INDICATES FEW OR NO CLOUDS BELOW 12,000 FEET WITH  
NO SIGNIFICANT WEATHER AND/OR OBSTRUCTIONS TO VISIBILITY.  
------------------------------------------------------------------  
 
CITY SKY/WX TMP DP RH WIND PRES REMARKS  
BURLINGTON CLOUDY 33 30 88 S8 29.76F FOG WCI 26  
CEDAR RAPIDS SNOW 28 27 96 SE13 29.75F VSB 1/2 WCI 17  
DAVENPORT CLOUDY 31 28 89 SE18 29.80F FOG WCI 19  
DUBUQUE LGT SNOW 27 25 92 E18G29 29.76F VSB 3/4 WCI 14  
IOWA CITY LGT SNOW 30 29 96 SE8 29.78F VSB 3/4 WCI 22  
MOLINE CLOUDY 33 31 92 SE14 29.79F FOG WCI 23  
------------------------------------------------------------------  
THE STATIONS BELOW ARE NOT NWS STATIONS AND ARE NOT SUBJECT TO NWS  
QUALITY CONTROL. SOME STATIONS DO NOT REPORT WEATHER SUCH AS FOG.  
* - STATIONS THAT REPORT TMP AND DP IN WHOLE DEGREES CELSIUS, WHICH  
ARE THEN CONVERTED TO FAHRENHEIT.  
------------------------------------------------------------------  
 
CITY SKY/WX TMP DP RH WIND PRES REMARKS  
CLINTON MIX PCPN 30 29 96 SE21 29.80S FOG WCI 17  
FAIRFIELD * FOG 32 30 93 SE13G18 29.75S VSB 1 WCI 22  
FORT MADISON * CLOUDY 32 32 100 SE6 29.78F FOG WCI 26  
FREEPORT LGT RAIN 30 29 99 E17 29.84F VSB 3/4 WCI 18  
INDEPENDENCE * SNOW 29 28 95 SE16 29.75F VSB 1/2 WCI 18  
KEOKUK * CLOUDY 32 32 100 SE6 29.77F FOG WCI 26  
MACOMB CLOUDY 32 32 100 SE7 29.80F FOG WCI 26  
MONTICELLO * NOT AVBL  
MT PLEASANT LGT RAIN 34 34 100 SE7 29.77F WCI 28  
MUSCATINE * N/A 32 30 93 SE10 29.78F FOG WCI 24  
SAVANNA NOT AVBL  
STERLING/R.F. MIX PCPN N/A N/A N/A MISG N/A  
VINTON * LGT SNOW 28 26 91 SE12 29.76F VSB 1 WCI 18  
WASHINGTON * FOG 32 32 100 SE10 29.77F VSB 3/4 WCI 24  
------------------------------------------------------------------  
 
 
CLICK HERE TO GO TO PREVIOUS BULLETINS.

The Nexlab IL Page
The Nexlab IA Page
The Nexlab MO Page Main Text Page